Regional Weather Roundup
Issued by NWS

Home | Current Version | Previous Version | Text Only | Print | Product List | Glossary On
Versions: 1 2 3 4 5 6 7 8 9 10 11 12 13 14 15 16 17 18 19 20 21 22 23 24 25 26 27 28 29 30 31 32 33 34 35 36 37 38 39 40 41 42 43 44 45 46 47 48 49 50
000
ASUS43 KBIS 082010
RWRND

NORTH DAKOTA REGIONAL WEATHER ROUNDUP
NATIONAL WEATHER SERVICE BISMARCK ND
200 PM CST MON FEB 08 2016

NOTE: "FAIR" INDICATES FEW OR NO CLOUDS BELOW 12,000 FEET WITH NO
SIGNIFICANT WEATHER AND/OR OBSTRUCTIONS TO VISIBILITY.


NDZ001>003-009>011-017-082100-
NORTHWEST NORTH DAKOTA

CITY           SKY/WX    TMP DP  RH WIND       PRES   REMARKS
WILLISTON      CLOUDY    34  17  50 NW14      30.31F
MINOT          CLOUDY    33  11  39 NW17G30   30.25F
MINOT AFB      PTSUNNY   31  11  43 NW22G28   30.25F WCI  18
$$

NDZ018>021-031>035-040>046-082100-
SOUTHWEST NORTH DAKOTA

CITY           SKY/WX    TMP DP  RH WIND       PRES   REMARKS
BISMARCK       MOSUNNY   36  17  46 NW18G32   30.24F
DICKINSON      CLOUDY    34  12  40 NW20      30.25F
GARRISON         N/A     32  18  56 NW28G36   30.24F WCI  18
HETTINGER ARPT MOSUNNY   37   9  31 NW24G33   30.26F
$$

NDZ004>008-012>016-024-026-027-054-082100-
NORTHEAST NORTH DAKOTA

CITY           SKY/WX    TMP DP  RH WIND       PRES   REMARKS
GRAND FORKS    SNOW      13   7  77 N29G43    30.21S VSB 1/2 WCI  -8
GRND FRKS AFB  LGT SNOW  14   7  73 N23G31    30.21R WCI  -5
DEVILS LAKE    CLOUDY    18  12  77 N20G29    30.21S WCI   2
$$

NDZ022-023-025-028>030-036>039-047>053-082100-
SOUTHEAST NORTH DAKOTA

CITY           SKY/WX    TMP DP  RH WIND       PRES   REMARKS
FARGO          LGT SNOW  16  10  77 N25       30.18S VSB 3/4 WCI  -3
JAMESTOWN      MOSUNNY   24  13  62 N25G36    30.17F WCI   8
$$




USA.gov is the U.S. government's official web portal to all federal, state and local government web resources and services.